小惑星オキロエ

(52872) Okyrhoe (2008)

English version
Home page
Updated on September 3, 2011

---------------------------------------------------------------------

・ プロフィール

符号 (52872) 1998 SG35
発見日 1998年9月19日
発見光度 21.0等
発見者 J. V. Scotti, J. Montani, J. Larsen, A. Gleason, N. Danzl (Kitt Peak)

・ 軌道要素

The following orbital elements are taken from MPO198790

Epoch 2011 Aug. 27.0 TT = JDT 2455800.5                 MPC
M  53.80064              (2000.0)            P               Q
n   0.04093134     Peri.  337.51372     -0.87356615     -0.48564352
a   8.3387073      Node   173.16365     +0.47744962     -0.86789816
e   0.3058090      Incl.   15.66144     +0.09446719     -0.10441816
P  24.1            H   10.9           G   0.15           U   0
From 424 observations at 13 oppositions, 1998-2011, mean residual 0".50.

・ 光度変化

        H = 11.0  G = 0.15

---------------------------------------------------------------------

軌道要素はMPCのEphemerides and Orbital Elementsに掲載されたものです。
光度グラフはComet for Windowsで作成したものです。

---------------------------------------------------------------------

Copyright(C) Seiichi Yoshida (comet@aerith.net). All rights reserved.